sat.trackr.live / text

‹ back to catalog

FLOCK 4Q-4

NORAD 58327 · 2023-174BZ

PAYLOAD ACTIVE UNKNOWN

§ Identity

Operator
Country
US
Launch date
2023-11-11
Launch site
AFWTR
Launch vehicle
Mass (kg)
RCS (m²)

Purposes: earth_obs

External: N2YO · Heavens-Above · Gunter

§ Orbital elements

Epoch: 2026-09-19T11:49:17.950368Z

Period
92.75 min
Inclination
97.3774°
Eccentricity
0.0005241
Mean motion
15.52640932 rev/d
Perigee alt
405.5 km
Apogee alt
412.6 km
Semi-major
6,787.2 km
B*
3.4061e-4
RAAN
352.5413°
Arg perigee
170.9520°
Mean anomaly
189.1828°
Rev number
16,017

§ Raw data

FLOCK 4Q-41 58327U 23174BZ  26262.49256887  .00020902  00000+0  34061-3 0  99982 58327  97.3774 352.5413 0005241 170.9520 189.1828 15.52640932160172

JSON: /api/v1/satellites/58327 · /tle

For live sub-satellite position, see the globe view (requires WebGL).

§ Visibility from observer

Set your observer location to see the next 7 days of passes ≥ 10°. The values pass through the URL so the page stays shareable.

No JS? Fill the form by hand. The geolocation button needs JavaScript.